Hourly Weather Rudyszwald

Today, 23 April, Friday

Time Temperature Precipitation Wind Pressure Humidity
00:00 +2°C° 0 mm 2 mps 747 mmHg 80%
01:00 +2°C° 0 mm 2 mps 747 mmHg 82%
02:00 +2°C° 0 mm 2 mps 747 mmHg 83%
03:00 +2°C° 0 mm 2 mps 747 mmHg 85%
04:00 +1°C° 0 mm 2 mps 747 mmHg 86%
05:00 +2°C° 0 mm 2 mps 747 mmHg 83%
06:00 +4°C° 0 mm 2 mps 748 mmHg 81%
07:00 +5°C° 0 mm 2 mps 748 mmHg 78%
08:00 +4°C° 0.2 mm 3 mps 748 mmHg 76%
09:00 +5°C° 0.2 mm 3 mps 748 mmHg 74%
10:00 +5°C° 0.2 mm 4 mps 749 mmHg 73%
11:00 +6°C° 0.2 mm 4 mps 749 mmHg 67%
12:00 +7°C° 0.2 mm 4 mps 749 mmHg 61%
13:00 +8°C° 0.2 mm 4 mps 749 mmHg 56%
14:00 +8°C° 0.1 mm 4 mps 748 mmHg 56%
15:00 +8°C° 0.1 mm 4 mps 748 mmHg 56%
16:00 +8°C° 0.1 mm 4 mps 748 mmHg 56%
17:00 +8°C° 0 mm 3 mps 749 mmHg 62%
18:00 +5°C° 0 mm 3 mps 749 mmHg 69%
19:00 +5°C° 0 mm 2 mps 749 mmHg 75%
20:00 +4°C° 0 mm 2 mps 749 mmHg 77%
21:00 +4°C° 0 mm 2 mps 749 mmHg 78%
22:00 +3°C° 0 mm 2 mps 749 mmHg 80%
23:00 +3°C° 0 mm 2 mps 749 mmHg 81%

Tomorrow, 24 April, Saturday

Time Temperature Precipitation Wind Pressure Humidity
00:00 +3°C° 0 mm 2 mps 749 mmHg 81%
01:00 +2°C° 0 mm 3 mps 749 mmHg 82%
02:00 +3°C° 0 mm 2 mps 749 mmHg 82%
03:00 +2°C° 0 mm 2 mps 749 mmHg 82%
04:00 +2°C° 0 mm 2 mps 749 mmHg 82%
05:00 +4°C° 0 mm 2 mps 749 mmHg 78%
06:00 +5°C° 0 mm 2 mps 749 mmHg 75%
07:00 +6°C° 0 mm 2 mps 750 mmHg 72%
08:00 +7°C° 0 mm 2 mps 749 mmHg 67%
09:00 +8°C° 0 mm 2 mps 749 mmHg 63%
10:00 +9°C° 0 mm 2 mps 749 mmHg 59%
11:00 +9°C° 0 mm 2 mps 749 mmHg 58%
12:00 +11°C° 0 mm 1 mps 749 mmHg 56%
13:00 +11°C° 0 mm 1 mps 748 mmHg 55%
14:00 +12°C° 0 mm 1 mps 748 mmHg 56%
15:00 +12°C° 0 mm 2 mps 747 mmHg 57%
16:00 +12°C° 0 mm 2 mps 747 mmHg 58%
17:00 +10°C° 0 mm 2 mps 747 mmHg 64%
18:00 +9°C° 0 mm 2 mps 747 mmHg 70%
19:00 +7°C° 0 mm 2 mps 748 mmHg 76%
20:00 +7°C° 0 mm 2 mps 748 mmHg 77%
21:00 +8°C° 0 mm 1 mps 748 mmHg 78%
22:00 +7°C° 0 mm 1 mps 748 mmHg 79%
23:00 +7°C° 0 mm 1 mps 748 mmHg 80%

Day after tomorrow, 25 April, Sunday

Time Temperature Precipitation Wind Pressure Humidity
00:00 +6°C° 0 mm 1 mps 747 mmHg 82%
01:00 +6°C° 0 mm 1 mps 747 mmHg 83%
02:00 +4°C° 0 mm 2 mps 748 mmHg 85%
03:00 +3°C° 0 mm 2 mps 748 mmHg 88%
04:00 +2°C° 0 mm 2 mps 748 mmHg 90%
05:00 +3°C° 0 mm 2 mps 748 mmHg 85%
06:00 +4°C° 0 mm 2 mps 748 mmHg 79%
07:00 +5°C° 0 mm 2 mps 748 mmHg 74%
08:00 +5°C° 0 mm 3 mps 748 mmHg 66%
09:00 +7°C° 0 mm 3 mps 748 mmHg 57%
10:00 +7°C° 0 mm 4 mps 748 mmHg 48%
11:00 +7°C° 0 mm 4 mps 748 mmHg 45%
12:00 +8°C° 0 mm 4 mps 748 mmHg 41%
13:00 +8°C° 0 mm 4 mps 748 mmHg 38%
14:00 +8°C° 0 mm 4 mps 748 mmHg 38%
15:00 +8°C° 0 mm 5 mps 748 mmHg 38%
16:00 +8°C° 0 mm 5 mps 748 mmHg 38%
17:00 +7°C° 0 mm 4 mps 748 mmHg 44%
18:00 +5°C° 0 mm 3 mps 748 mmHg 50%
19:00 +5°C° 0 mm 2 mps 748 mmHg 56%
20:00 +5°C° 0 mm 1 mps 748 mmHg 57%
21:00 +4°C° 0 mm 1 mps 748 mmHg 58%
22:00 +4°C° 0 mm 1 mps 748 mmHg 59%
23:00 +3°C° 0 mm 1 mps 748 mmHg 60%

26 April, Monday

Time Temperature Precipitation Wind Pressure Humidity
00:00 +3°C° 0 mm 1 mps 748 mmHg 61%
01:00 +2°C° 0 mm 1 mps 747 mmHg 63%
02:00 +2°C° 0 mm 1 mps 747 mmHg 63%
03:00 +2°C° 0 mm 1 mps 747 mmHg 63%
04:00 +2°C° 0 mm 1 mps 747 mmHg 63%
05:00 +3°C° 0 mm 1 mps 746 mmHg 59%
06:00 +5°C° 0 mm 1 mps 746 mmHg 55%
07:00 +6°C° 0 mm 1 mps 746 mmHg 51%
08:00 +8°C° 0 mm 1 mps 746 mmHg 46%
09:00 +9°C° 0 mm 1 mps 746 mmHg 41%
10:00 +11°C° 0 mm 1 mps 745 mmHg 37%
11:00 +10°C° 0 mm 2 mps 745 mmHg 36%
12:00 +12°C° 0 mm 2 mps 744 mmHg 36%
13:00 +13°C° 0 mm 2 mps 744 mmHg 35%
14:00 +13°C° 0 mm 2 mps 743 mmHg 37%
15:00 +13°C° 0 mm 2 mps 743 mmHg 39%
16:00 +12°C° 0 mm 3 mps 743 mmHg 40%
17:00 +10°C° 0 mm 2 mps 743 mmHg 47%
18:00 +8°C° 0 mm 2 mps 742 mmHg 53%
19:00 +7°C° 0 mm 2 mps 742 mmHg 59%
20:00 +6°C° 0 mm 2 mps 742 mmHg 62%
21:00 +5°C° 0 mm 2 mps 742 mmHg 65%
22:00 +4°C° 0 mm 2 mps 743 mmHg 68%
23:00 +4°C° 0 mm 2 mps 742 mmHg 69%

27 April, Tuesday

Time Temperature Precipitation Wind Pressure Humidity
00:00 +3°C° 0 mm 2 mps 742 mmHg 71%
01:00 +4°C° 0 mm 1 mps 741 mmHg 72%
02:00 +3°C° 0 mm 1 mps 741 mmHg 74%
03:00 +3°C° 0 mm 1 mps 740 mmHg 75%
04:00 +3°C° 0 mm 1 mps 740 mmHg 77%
05:00 +3°C° 0 mm 2 mps 740 mmHg 73%
06:00 +4°C° 0 mm 2 mps 740 mmHg 69%
07:00 +6°C° 0 mm 2 mps 739 mmHg 64%
08:00 +7°C° 0 mm 3 mps 739 mmHg 60%
09:00 +9°C° 0 mm 3 mps 738 mmHg 55%
10:00 +11°C° 0 mm 3 mps 738 mmHg 50%
11:00 +11°C° 0 mm 3 mps 738 mmHg 51%
12:00 +12°C° 0 mm 3 mps 737 mmHg 51%
13:00 +14°C° 0 mm 2 mps 736 mmHg 52%
14:00 +12°C° 0.1 mm 3 mps 736 mmHg 58%
15:00 +11°C° 0.1 mm 3 mps 736 mmHg 64%
16:00 +11°C° 0.1 mm 3 mps 735 mmHg 71%
17:00 +10°C° 0.2 mm 2 mps 735 mmHg 76%
18:00 +9°C° 0.2 mm 2 mps 735 mmHg 82%
19:00 +8°C° 0.2 mm 2 mps 734 mmHg 88%
20:00 +9°C° 0.1 mm 1 mps 734 mmHg 89%
21:00 +9°C° 0.1 mm 1 mps 734 mmHg 90%
22:00 +9°C° 0.1 mm 1 mps 733 mmHg 91%
23:00 +8°C° 0 mm 1 mps 733 mmHg 92%

28 April, Wednesday

Time Temperature Precipitation Wind Pressure Humidity
00:00 +8°C° 0 mm 1 mps 733 mmHg 92%
01:00 +8°C° 0 mm 1 mps 733 mmHg 92%
02:00 +8°C° 0 mm 1 mps 733 mmHg 92%
03:00 +8°C° 0 mm 1 mps 733 mmHg 92%
04:00 +8°C° 0 mm 1 mps 732 mmHg 91%
05:00 +8°C° 0 mm 1 mps 733 mmHg 90%
06:00 +9°C° 0 mm 1 mps 733 mmHg 89%
07:00 +8°C° 0 mm 0 mps 733 mmHg 88%
08:00 +8°C° 0.1 mm 0 mps 733 mmHg 87%
09:00 +9°C° 0.1 mm 0 mps 733 mmHg 87%
10:00 +9°C° 0.1 mm 0 mps 732 mmHg 86%
11:00 +9°C° 0.4 mm 0 mps 732 mmHg 89%
12:00 +8°C° 0.4 mm 0 mps 732 mmHg 91%
13:00 +9°C° 0.4 mm 1 mps 732 mmHg 94%
14:00 +9°C° 1.8 mm 1 mps 732 mmHg 95%
15:00 +9°C° 1.8 mm 1 mps 732 mmHg 96%
16:00 +8°C° 1.8 mm 2 mps 732 mmHg 98%
17:00 +8°C° 1.2 mm 2 mps 732 mmHg 98%
18:00 +7°C° 1.2 mm 2 mps 732 mmHg 98%
19:00 +7°C° 1.2 mm 2 mps 732 mmHg 98%
20:00 +7°C° 0.7 mm 3 mps 732 mmHg 97%
21:00 +7°C° 0.7 mm 3 mps 732 mmHg 97%
22:00 +7°C° 0.7 mm 3 mps 732 mmHg 96%
23:00 +7°C° 1 mm 3 mps 732 mmHg 97%
Show more